FW9574 Weather Reports


time (UTC)temp
C
wind
direction
speed
KPH
gust
KPH
rain 1hr
cm
rain 24hr
cm
rain mn
cm
humidity
%
barometer
mb
20260906195403 24 165 6.4 14.5 0.00 0.00 0.00 90 1014.4
20260906194858 24 166 6.4 20.9 0.00 0.00 0.00 91 1014.3
20260906194353 24 185 12.9 22.5 0.00 0.00 0.00 89 1014.3
20260906193849 25 165 11.3 20.9 0.00 0.00 0.00 88 1014.2
20260906193343 25 168 8.0 20.9 0.00 0.00 0.00 88 1014.1
20260906192838 25 159 16.1 19.3 0.00 0.00 0.00 87 1014.2
20260906192333 25 158 16.1 22.5 0.00 0.00 0.00 86 1014.5
20260906191832 25 164 6.4 20.9 0.00 0.00 0.00 86 1014.5
20260906191327 25 183 6.4 19.3 0.00 0.00 0.00 86 1014.4
20260906190821 25 157 14.5 19.3 0.00 0.00 0.00 85 1014.7
20260906190320 25 180 8.0 12.9 0.00 0.00 0.00 86 1014.6
20260906185815 25 170 4.8 17.7 0.00 0.00 0.00 86 1014.7
20260906185314 25 178 9.7 17.7 0.00 0.00 0.00 85 1014.6
20260906184809 25 164 14.5 19.3 0.00 0.00 0.00 85 1014.6
20260906184304 25 152 8.0 16.1 0.00 0.00 0.00 85 1014.5
20260906183759 26 162 14.5 22.5 0.00 0.00 0.00 85 1014.4
20260906183256 26 173 9.7 17.7 0.00 0.00 0.00 84 1014.6
20260906182755 26 163 4.8 12.9 0.00 0.00 0.00 83 1014.6
20260906182251 26 183 8.0 11.3 0.00 0.00 0.00 83 1014.5
20260906181746 26 104 8.0 14.5 0.00 0.00 0.00 83 1014.5
20260906181242 26 101 4.8 11.3 0.00 0.00 0.00 83 1014.4
20260906180737 26 174 8.0 14.5 0.00 0.00 0.00 83 1014.5
20260906180232 26 130 6.4 11.3 0.00 0.00 0.00 83 1014.6
20260906175730 26 156 4.8 19.3 0.00 0.00 0.00 84 1014.5
20260906175226 26 163 14.5 17.7 0.00 0.00 0.00 84 1014.7
20260906174724 26 158 6.4 16.1 0.00 0.00 0.00 83 1014.6
20260906174223 26 129 6.4 14.5 0.00 0.00 0.00 82 1014.6
20260906173719 26 131 3.2 14.5 0.00 0.00 0.00 84 1014.4
20260906173214 26 154 11.3 17.7 0.00 0.00 0.00 83 1014.5
20260906172713 25 162 3.2 9.7 0.00 0.00 0.00 85 1014.8
20260906172209 25 150 6.4 16.1 0.00 0.00 0.00 84 1014.7
20260906171704 26 176 9.7 19.3 0.00 0.00 0.00 84 1014.8
20260906171200 25 121 3.2 17.7 0.00 0.00 0.00 85 1014.9
20260906170655 25 154 9.7 17.7 0.00 0.00 0.00 84 1015.0
20260906170154 26 171 4.8 12.9 0.00 0.00 0.00 84 1015.0
20260906165646 26 111 9.7 16.1 0.00 0.00 0.00 83 1014.8
20260906165141 26 161 6.4 17.7 0.00 0.00 0.00 84 1015.0
20260906164640 26 123 6.4 11.3 0.00 0.00 0.00 83 1015.1
20260906164135 26 104 3.2 9.7 0.00 0.00 0.00 82 1015.2
20260906163630 26 140 8.0 19.3 0.00 0.00 0.00 84 1015.0
20260906163126 26 110 8.0 14.5 0.00 0.00 0.00 84 1015.2
20260906162623 25 138 6.4 19.3 0.00 0.00 0.00 84 1015.2
20260906162118 25 145 4.8 14.5 0.00 0.00 0.00 85 1014.9
20260906161613 25 131 8.0 22.5 0.00 0.00 0.00 84 1015.1
20260906161112 25 156 11.3 20.9 0.00 0.00 0.00 85 1015.2
20260906160611 25 147 14.5 17.7 0.00 0.00 0.00 85 1015.0
20260906160110 25 114 14.5 20.9 0.00 0.00 0.00 84 1015.1
20260906155608 26 124 8.0 14.5 0.00 0.00 0.00 83 1015.1
20260906155104 25 137 8.0 14.5 0.00 0.00 0.00 84 1015.1
20260906154559 25 136 8.0 14.5 0.00 0.00 0.00 83 1015.2
20260906154057 26 141 9.7 16.1 0.00 0.00 0.00 83 1015.5
20260906153556 25 144 6.4 16.1 0.00 0.00 0.00 86 1015.2
20260906153051 25 137 9.7 14.5 0.00 0.00 0.00 86 1015.3
20260906152550 25 135 6.4 12.9 0.00 0.00 0.00 87 1015.4
20260906152045 24 130 6.4 16.1 0.00 0.00 0.00 87 1015.5
20260906151540 24 140 6.4 16.1 0.00 0.00 0.00 87 1015.3
20260906151036 24 97 4.8 9.7 0.00 0.00 0.00 88 1015.7
20260906150531 24 129 6.4 14.5 0.00 0.00 0.00 87 1015.7
20260906150026 24 153 8.0 12.9 0.00 0.00 0.00 88 1015.5
20260906145525 24 154 3.2 8.0 0.00 0.00 0.00 87 1015.5
20260906145020 24 154 6.4 20.9 0.00 0.00 0.00 87 1015.4
20260906144515 24 117 8.0 8.0 0.00 0.00 0.00 88 1015.4
20260906144010 23 94 8.0 11.3 0.00 0.00 0.00 88 1015.4
20260906143505 23 103 9.7 12.9 0.00 0.00 0.00 88 1015.4
20260906143002 23 88 9.7 12.9 0.00 0.00 0.00 88 1015.3
20260906142501 23 155 9.7 11.3 0.00 0.00 0.00 89 1015.2
20260906141955 23 101 4.8 9.7 0.00 0.00 0.00 90 1015.3
20260906141449 23 129 4.8 9.7 0.00 0.00 0.00 91 1015.4
20260906140945 23 108 12.9 12.9 0.00 0.00 0.00 91 1015.5
20260906140439 23 129 6.4 9.7 0.00 0.00 0.00 91 1015.6
20260906135937 23 124 9.7 11.3 0.00 0.00 0.00 91 1015.5
20260906135436 23 100 8.0 12.9 0.00 0.00 0.00 91 1015.5
20260906134932 23 110 6.4 12.9 0.00 0.00 0.00 91 1015.6
20260906134426 23 130 4.8 9.7 0.00 0.00 0.00 91 1015.7
20260906133921 22 105 8.0 9.7 0.00 0.00 0.00 91 1015.4
20260906133417 22 88 4.8 14.5 0.00 0.00 0.00 92 1015.5
20260906132913 22 102 4.8 12.9 0.00 0.00 0.00 92 1015.6
20260906132408 22 100 6.4 11.3 0.00 0.00 0.00 92 1015.5
20260906131904 22 112 3.2 9.7 0.00 0.00 0.00 93 1015.5
20260906131359 22 92 6.4 11.3 0.00 0.00 0.00 93 1015.3
20260906130854 22 155 3.2 11.3 0.00 0.00 0.00 93 1015.2
20260906130354 22 124 4.8 6.4 0.00 0.00 0.00 93 1015.4
20260906125853 22 89 4.8 8.0 0.00 0.00 0.00 93 1015.4
20260906125350 22 103 3.2 8.0 0.00 0.00 0.00 93 1015.4
20260906124845 22 124 3.2 8.0 0.00 0.00 0.00 94 1015.2
20260906124341 22 150 4.8 8.0 0.00 0.00 0.00 94 1015.3
20260906123840 22 151 1.6 6.4 0.00 0.00 0.00 94 1015.1
20260906123335 22 150 6.4 11.3 0.00 0.00 0.00 94 1015.1
20260906122834 22 111 6.4 14.5 0.00 0.00 0.00 94 1015.0
20260906122330 22 164 6.4 8.0 0.00 0.00 0.00 94 1015.0
20260906121826 22 116 4.8 8.0 0.00 0.00 0.00 95 1015.0
20260906121322 22 111 3.2 9.7 0.00 0.00 0.00 95 1014.8
20260906120818 22 129 4.8 8.0 0.00 0.00 0.00 95 1015.0
20260906120314 22 116 6.4 12.9 0.00 0.00 0.00 95 1015.0
20260906115810 22 142 6.4 9.7 0.00 0.00 0.00 95 1015.0
20260906115306 22 115 6.4 6.4 0.00 0.00 0.00 95 1015.0
20260906114804 22 123 6.4 8.0 0.00 0.00 0.00 94 1015.0
20260906114259 22 117 3.2 9.7 0.00 0.00 0.00 94 1014.8
20260906113754 22 92 6.4 8.0 0.00 0.00 0.00 94 1014.8
20260906113249 22 121 6.4 9.7 0.00 0.00 0.00 94 1014.7
20260906112749 22 142 9.7 11.3 0.00 0.00 0.00 94 1014.8
20260906112246 22 135 14.5 17.7 0.00 0.00 0.00 93 1014.7
20260906111744 22 155 9.7 11.3 0.00 0.00 0.00 93 1014.9
20260906111238 22 116 9.7 9.7 0.00 0.00 0.00 93 1014.9
20260906110734 22 108 9.7 16.1 0.00 0.00 0.00 93 1015.1
20260906110230 22 140 4.8 14.5 0.00 0.00 0.00 93 1015.3
20260906105728 22 154 3.2 16.1 0.00 0.00 0.00 93 1015.1
20260906105225 22 134 9.7 11.3 0.00 0.00 0.00 93 1015.3
20260906104725 22 115 9.7 11.3 0.00 0.00 0.00 93 1015.2
20260906104224 22 122 3.2 9.7 0.00 0.00 0.00 92 1015.2
20260906103721 22 147 6.4 14.5 0.00 0.00 0.00 92 1015.2
20260906103216 22 128 3.2 9.7 0.00 0.00 0.00 92 1015.0
20260906102712 22 71 6.4 11.3 0.00 0.00 0.00 92 1015.1
20260906102211 22 103 4.8 9.7 0.00 0.00 0.00 92 1015.2
20260906101706 22 133 4.8 11.3 0.00 0.00 0.00 92 1015.2
20260906101201 22 114 4.8 9.7 0.00 0.00 0.00 92 1015.4
20260906100656 22 131 3.2 12.9 0.00 0.00 0.00 91 1015.3
20260906100151 22 99 4.8 8.0 0.00 0.00 0.00 91 1015.3
20260906095646 22 133 3.2 8.0 0.00 0.00 0.00 91 1015.2
20260906095141 22 137 1.6 6.4 0.00 0.00 0.00 91 1015.2
20260906094640 22 134 3.2 14.5 0.00 0.00 0.00 91 1015.0
20260906094135 22 141 4.8 8.0 0.00 0.00 0.00 91 1015.1
20260906093631 22 127 4.8 6.4 0.00 0.00 0.00 91 1015.0
20260906093126 22 93 6.4 8.0 0.00 0.00 0.00 91 1014.8
20260906092621 22 149 4.8 9.7 0.00 0.00 0.00 91 1014.7
20260906092116 22 125 9.7 9.7 0.00 0.00 0.00 91 1014.7
20260906091612 22 130 8.0 17.7 0.00 0.00 0.00 91 1014.6
20260906091108 22 103 4.8 12.9 0.00 0.00 0.00 92 1014.8
20260906090603 22 141 6.4 6.4 0.00 0.00 0.00 91 1014.8
20260906085602 22 161 4.8 9.7 0.00 0.00 0.00 91 1014.6
20260906085102 22 105 4.8 8.0 0.00 0.00 0.00 91 1014.6
20260906084556 22 120 3.2 12.9 0.00 0.00 0.00 91 1014.4
20260906084055 22 103 3.2 9.7 0.00 0.00 0.00 91 1014.5
20260906083551 22 136 6.4 12.9 0.00 0.00 0.00 91 1014.3
20260906083050 21 108 6.4 17.7 0.00 0.00 0.00 91 1014.3
20260906082546 21 127 6.4 9.7 0.00 0.00 0.00 91 1014.2
20260906082042 21 123 8.0 9.7 0.00 0.00 0.00 92 1014.3
20260906081538 21 129 3.2 8.0 0.00 0.00 0.00 91 1014.3
20260906081033 21 104 8.0 11.3 0.00 0.00 0.00 91 1014.2
20260906080529 21 150 6.4 9.7 0.00 0.00 0.00 91 1014.2
20260906080025 21 145 8.0 9.7 0.00 0.00 0.00 91 1014.2
20260906075520 21 150 3.2 9.7 0.00 0.00 0.00 91 1014.1
20260906075014 21 108 3.2 8.0 0.00 0.00 0.00 91 1014.2
20260906074509 21 124 6.4 11.3 0.00 0.00 0.00 91 1014.2
20260906074008 21 106 4.8 8.0 0.00 0.00 0.00 91 1014.4
20260906073503 21 137 4.8 9.7 0.00 0.00 0.00 91 1014.1
20260906072959 21 113 6.4 12.9 0.00 0.00 0.00 91 1014.1
20260906072454 21 118 9.7 11.3 0.00 0.00 0.00 91 1014.2
20260906071950 21 100 9.7 11.3 0.00 0.00 0.00 90 1014.2
20260906071446 21 138 12.9 12.9 0.00 0.00 0.00 90 1014.4
20260906070941 21 95 8.0 9.7 0.00 0.00 0.00 90 1014.3
20260906070437 21 112 1.6 12.9 0.00 0.00 0.00 90 1014.4
20260906065932 21 125 6.4 11.3 0.00 0.00 0.00 89 1014.3
20260906065427 22 83 9.7 12.9 0.00 0.00 0.00 89 1014.3
20260906064922 22 127 4.8 11.3 0.00 0.00 0.00 89 1014.5
20260906064418 22 104 6.4 14.5 0.00 0.00 0.00 88 1014.5
20260906063918 22 124 6.4 9.7 0.00 0.00 0.00 88 1014.5
20260906063414 22 111 6.4 14.5 0.00 0.00 0.00 88 1014.7
20260906062909 22 118 4.8 11.3 0.00 0.00 0.00 87 1014.7
20260906062408 22 111 8.0 9.7 0.00 0.00 0.00 87 1014.9
20260906061903 22 124 4.8 8.0 0.00 0.00 0.00 87 1014.8
20260906061354 22 137 3.2 12.9 0.00 0.00 0.00 87 1015.0
20260906060848 22 99 9.7 9.7 0.00 0.00 0.00 87 1015.0
20260906060346 22 107 3.2 11.3 0.00 0.00 0.00 86 1015.0
20260906055842 22 99 6.4 16.1 0.00 0.00 0.00 86 1015.1
20260906055337 22 125 6.4 14.5 0.00 0.00 0.00 86 1015.2
20260906054832 22 135 3.2 16.1 0.00 0.00 0.00 86 1015.0
20260906054327 22 101 9.7 14.5 0.00 0.00 0.00 85 1015.0
20260906053824 22 109 3.2 12.9 0.00 0.00 0.00 85 1014.9
20260906053319 22 95 6.4 14.5 0.00 0.00 0.00 85 1015.0
20260906052814 22 87 14.5 17.7 0.00 0.00 0.00 84 1014.8
20260906052311 22 97 9.7 12.9 0.00 0.00 0.00 84 1015.2
20260906051808 23 101 6.4 11.3 0.00 0.00 0.00 84 1015.2
20260906051307 23 134 4.8 14.5 0.00 0.00 0.00 84 1015.2
20260906050803 23 95 6.4 9.7 0.00 0.00 0.00 84 1015.3
20260906050258 23 117 6.4 12.9 0.00 0.00 0.00 84 1015.2
20260906045756 23 166 1.6 12.9 0.00 0.00 0.00 83 1015.1
20260906045251 23 88 6.4 12.9 0.00 0.00 0.00 83 1015.1
20260906044747 23 110 6.4 12.9 0.00 0.00 0.00 83 1015.0
20260906044242 23 138 3.2 12.9 0.00 0.00 0.00 83 1014.9
20260906043738 23 87 4.8 9.7 0.00 0.00 0.00 83 1015.1
20260906043234 23 129 3.2 6.4 0.00 0.00 0.00 83 1015.2
20260906042733 23 147 1.6 8.0 0.00 0.00 0.00 83 1015.2
20260906042232 23 137 4.8 9.7 0.00 0.00 0.00 82 1015.3
20260906041728 23 103 3.2 11.3 0.00 0.00 0.00 82 1015.4
20260906041223 23 91 6.4 8.0 0.00 0.00 0.00 82 1015.3
20260906040719 23 104 3.2 8.0 0.00 0.00 0.00 82 1015.2
20260906040214 23 148 6.4 8.0 0.00 0.00 0.00 82 1015.0
20260906035709 23 106 8.0 9.7 0.00 0.00 0.00 81 1015.1
20260906035204 23 110 6.4 11.3 0.00 0.00 0.00 81 1015.1
20260906034658 23 94 3.2 11.3 0.00 0.00 0.00 82 1015.2
20260906034153 23 109 3.2 9.7 0.00 0.00 0.00 81 1015.2
20260906033649 23 101 1.6 9.7 0.00 0.00 0.00 81 1015.4
20260906033143 23 113 6.4 8.0 0.00 0.00 0.00 81 1015.1
20260906032640 23 127 9.7 9.7 0.00 0.00 0.00 81 1015.3
20260906032139 24 118 6.4 8.0 0.00 0.00 0.00 81 1015.0
20260906031635 24 99 9.7 9.7 0.00 0.00 0.00 80 1015.2
20260906031130 24 129 3.2 8.0 0.00 0.00 0.00 81 1015.0
20260906030630 24 100 9.7 12.9 0.00 0.00 0.00 80 1014.9
20260906030125 24 101 4.8 9.7 0.00 0.00 0.00 80 1014.9
20260906025624 24 113 4.8 8.0 0.00 0.00 0.00 81 1015.1
20260906025123 24 114 6.4 12.9 0.00 0.00 0.00 81 1015.0
20260906024618 24 121 8.0 8.0 0.00 0.00 0.00 81 1014.8
20260906024113 24 111 6.4 9.7 0.00 0.00 0.00 82 1014.6
20260906023609 24 124 1.6 6.4 0.00 0.00 0.00 82 1014.6
20260906023104 24 88 4.8 12.9 0.00 0.00 0.00 82 1014.6
20260906022559 24 128 8.0 14.5 0.00 0.00 0.00 82 1014.3
20260906022055 25 108 6.4 12.9 0.00 0.00 0.00 82 1014.5
20260906021550 25 95 6.4 11.3 0.00 0.00 0.00 82 1014.5
20260906021049 25 89 6.4 14.5 0.00 0.00 0.00 82 1014.6
20260906020548 25 114 6.4 8.0 0.00 0.00 0.00 82 1014.5
20260906020048 25 85 6.4 9.7 0.00 0.00 0.00 82 1014.5
20260906015542 25 99 6.4 8.0 0.00 0.00 0.00 82 1014.5
20260906015042 25 99 6.4 12.9 0.00 0.00 0.00 82 1014.5
20260906014536 25 94 3.2 12.9 0.00 0.00 0.00 81 1014.5
20260906014032 25 109 6.4 9.7 0.00 0.00 0.00 82 1014.4
20260906013527 25 105 6.4 11.3 0.00 0.00 0.00 82 1014.3
20260906013023 25 96 6.4 9.7 0.00 0.00 0.00 82 1014.5
20260906012518 25 91 4.8 6.4 0.00 0.00 0.00 82 1014.3
20260906012017 25 114 4.8 9.7 0.00 0.00 0.00 82 1014.5
20260906011514 25 93 6.4 6.4 0.00 0.00 0.00 82 1014.2
20260906011013 25 122 3.2 6.4 0.00 0.00 0.00 83 1014.2
20260906010509 25 103 3.2 4.8 0.00 0.00 0.00 83 1014.4
20260906010005 25 115 1.6 3.2 0.00 0.00 0.00 83 1014.4
20260906005504 25 135 3.2 3.2 0.00 0.00 0.00 82 1014.4
20260906005003 25 125 1.6 4.8 0.00 0.00 0.00 81 1014.3
20260906004457 25 102 3.2 3.2 0.00 0.00 0.00 81 1014.3
20260906003952 26 125 3.2 3.2 0.00 0.00 0.00 79 1014.5
20260906003448 26 109 3.2 3.2 0.00 0.00 0.00 79 1014.3
20260906002943 26 121 3.2 3.2 0.00 0.00 0.00 78 1014.3
20260906002443 26 73 3.2 3.2 0.00 0.00 0.00 77 1014.3
20260906001937 26 107 0.0 3.2 0.00 0.00 0.00 77 1014.1
20260906001433 26 96 3.2 4.8 0.00 0.00 0.00 76 1013.7
20260906000928 26 135 4.8 6.4 0.00 0.00 0.00 75 1013.8
20260906000425 27 111 4.8 9.7 0.00 0.00 0.00 74 1013.2
20260905235918 27 116 3.2 8.0 0.00 0.00 0.00 73 1013.0
20260905235412 27 104 4.8 12.9 0.00 0.00 0.00 72 1012.8
20260905234908 28 102 8.0 9.7 0.00 0.00 0.00 71 1012.9
20260905234403 28 95 6.4 11.3 0.00 0.00 0.00 71 1012.8
20260905233858 28 107 9.7 14.5 0.00 0.00 0.00 71 1012.7
20260905233353 28 161 6.4 6.4 0.00 0.00 0.00 71 1012.7
20260905232852 28 111 6.4 8.0 0.00 0.00 0.00 72 1012.8
20260905232349 28 81 9.7 11.3 0.00 0.00 0.00 72 1012.6
20260905231838 27 142 11.3 11.3 0.00 0.00 0.00 72 1012.7
20260905231338 27 105 17.7 17.7 0.00 0.00 0.00 73 1012.7
20260905230830 27 71 8.0 22.5 0.00 0.00 0.00 73 1012.9
20260905230327 28 165 8.0 9.7 0.00 0.00 0.00 73 1012.8
20260905225827 27 112 8.0 14.5 0.00 0.00 0.00 73 1012.8
20260905225322 27 76 11.3 19.3 0.00 0.00 0.00 74 1012.8
20260905224821 27 112 8.0 22.5 0.00 0.00 0.00 74 1012.9
20260905224317 27 100 14.5 27.4 0.00 0.00 0.00 74 1012.9
20260905223812 27 80 16.1 22.5 0.00 0.00 0.00 74 1012.9
20260905223309 27 100 9.7 17.7 0.00 0.00 0.00 74 1012.6
20260905222804 27 100 12.9 17.7 0.00 0.00 0.00 75 1012.7
20260905222306 27 100 16.1 20.9 0.00 0.00 0.00 75 1012.5
20260905221759 27 109 9.7 19.3 0.00 0.00 0.00 76 1012.5
20260905221256 27 115 17.7 22.5 0.00 0.00 0.00 76 1012.5
20260905220751 27 116 9.7 30.6 0.00 0.00 0.00 76 1012.5
20260905220248 27 99 11.3 25.7 0.00 0.00 0.00 75 1012.5
20260905215747 27 110 17.7 24.1 0.00 0.00 0.00 74 1012.3
20260905215243 27 95 11.3 24.1 0.00 0.00 0.00 75 1012.2
20260905214738 27 100 12.9 27.4 0.00 0.00 0.00 75 1012.3
20260905214234 27 96 17.7 30.6 0.00 0.00 0.00 74 1012.4
20260905213729 27 94 12.9 22.5 0.00 0.00 0.00 73 1012.8
20260905213225 27 110 11.3 25.7 0.00 0.00 0.00 73 1012.9
20260905212720 27 82 12.9 25.7 0.00 0.00 0.00 73 1013.0
20260905212219 27 81 11.3 25.7 0.00 0.00 0.00 72 1012.9
20260905211714 27 86 9.7 19.3 0.00 0.00 0.00 73 1013.3
20260905211209 27 103 16.1 22.5 0.00 0.00 0.00 72 1013.3
20260905210706 27 57 12.9 22.5 0.00 0.00 0.00 72 1013.4
20260905210205 27 76 17.7 19.3 0.00 0.00 0.00 71 1013.4
20260905205704 27 85 16.1 22.5 0.00 0.00 0.00 72 1013.5
20260905205159 27 66 17.7 20.9 0.00 0.00 0.00 72 1013.7
20260905204658 27 58 17.7 27.4 0.00 0.00 0.00 72 1013.5
20260905204148 27 96 6.4 22.5 0.00 0.00 0.00 72 1013.9
20260905203643 27 81 8.0 22.5 0.00 0.00 0.00 73 1014.0
20260905203138 27 79 11.3 20.9 0.00 0.00 0.00 72 1014.1
20260905202633 27 89 11.3 24.1 0.00 0.00 0.00 71 1013.9
20260905202128 27 72 12.9 25.7 0.00 0.00 0.00 72 1014.2
20260905201624 27 107 14.5 17.7 0.00 0.00 0.00 70 1014.3
20260905201123 27 102 16.1 17.7 0.00 0.00 0.00 70 1014.3
20260905200619 27 98 11.3 19.3 0.00 0.00 0.00 71 1014.3
20260905200114 27 80 12.9 20.9 0.00 0.00 0.00 71 1014.4